Hourly Weather Godziszewy

Today, 17 May, Monday

Time Temperature Precipitation Wind Pressure Humidity
00:00 +9°C° 0 mm 3 mps 741 mmHg 93%
01:00 +8°C° 0 mm 2 mps 741 mmHg 93%
02:00 +8°C° 0 mm 2 mps 741 mmHg 93%
03:00 +8°C° 0 mm 2 mps 741 mmHg 92%
04:00 +8°C° 0 mm 2 mps 741 mmHg 92%
05:00 +9°C° 0 mm 2 mps 742 mmHg 88%
06:00 +11°C° 0 mm 3 mps 742 mmHg 84%
07:00 +13°C° 0 mm 3 mps 742 mmHg 80%
08:00 +14°C° 0 mm 3 mps 742 mmHg 73%
09:00 +17°C° 0 mm 3 mps 742 mmHg 67%
10:00 +18°C° 0 mm 3 mps 742 mmHg 60%
11:00 +18°C° 0.2 mm 4 mps 742 mmHg 60%
12:00 +19°C° 0.2 mm 4 mps 742 mmHg 60%
13:00 +19°C° 0.2 mm 4 mps 742 mmHg 60%
14:00 +18°C° 0.4 mm 3 mps 741 mmHg 63%
15:00 +18°C° 0.4 mm 2 mps 741 mmHg 67%
16:00 +19°C° 0.4 mm 1 mps 741 mmHg 71%
17:00 +16°C° 1.2 mm 2 mps 741 mmHg 78%
18:00 +15°C° 1.2 mm 2 mps 741 mmHg 85%
19:00 +12°C° 1.2 mm 3 mps 742 mmHg 93%
20:00 +12°C° 0.8 mm 3 mps 742 mmHg 94%
21:00 +12°C° 0.8 mm 3 mps 742 mmHg 95%
22:00 +11°C° 0.8 mm 3 mps 742 mmHg 96%
23:00 +11°C° 0.6 mm 3 mps 742 mmHg 96%

Tomorrow, 18 May, Tuesday

Time Temperature Precipitation Wind Pressure Humidity
00:00 +11°C° 0.6 mm 3 mps 742 mmHg 96%
01:00 +10°C° 0.6 mm 3 mps 742 mmHg 97%
02:00 +10°C° 1 mm 3 mps 742 mmHg 97%
03:00 +10°C° 1 mm 2 mps 742 mmHg 97%
04:00 +10°C° 1 mm 2 mps 742 mmHg 98%
05:00 +10°C° 0.6 mm 2 mps 742 mmHg 97%
06:00 +10°C° 0.6 mm 2 mps 742 mmHg 97%
07:00 +10°C° 0.6 mm 2 mps 743 mmHg 96%
08:00 +12°C° 0.1 mm 2 mps 743 mmHg 94%
09:00 +11°C° 0.1 mm 3 mps 743 mmHg 92%
10:00 +12°C° 0.1 mm 3 mps 743 mmHg 90%
11:00 +12°C° 0.2 mm 3 mps 743 mmHg 88%
12:00 +12°C° 0.2 mm 3 mps 743 mmHg 85%
13:00 +13°C° 0.2 mm 3 mps 744 mmHg 83%
14:00 +13°C° 0.2 mm 3 mps 744 mmHg 84%
15:00 +13°C° 0.2 mm 3 mps 744 mmHg 86%
16:00 +12°C° 0.2 mm 3 mps 744 mmHg 87%
17:00 +12°C° 0 mm 3 mps 744 mmHg 88%
18:00 +12°C° 0 mm 3 mps 744 mmHg 90%
19:00 +12°C° 0 mm 2 mps 744 mmHg 92%
20:00 +12°C° 0 mm 2 mps 745 mmHg 93%
21:00 +10°C° 0 mm 2 mps 745 mmHg 94%
22:00 +10°C° 0 mm 2 mps 745 mmHg 95%
23:00 +9°C° 0 mm 2 mps 745 mmHg 95%

Day after tomorrow, 19 May, Wednesday

Time Temperature Precipitation Wind Pressure Humidity
00:00 +9°C° 0 mm 2 mps 745 mmHg 95%
01:00 +8°C° 0 mm 2 mps 745 mmHg 95%
02:00 +8°C° 0.1 mm 2 mps 745 mmHg 95%
03:00 +8°C° 0.1 mm 2 mps 746 mmHg 96%
04:00 +8°C° 0.1 mm 2 mps 746 mmHg 97%
05:00 +9°C° 0 mm 3 mps 746 mmHg 93%
06:00 +10°C° 0 mm 3 mps 746 mmHg 89%
07:00 +11°C° 0 mm 3 mps 747 mmHg 85%
08:00 +12°C° 0.1 mm 4 mps 747 mmHg 80%
09:00 +13°C° 0.1 mm 4 mps 747 mmHg 74%
10:00 +14°C° 0.1 mm 4 mps 747 mmHg 68%
11:00 +15°C° 0.4 mm 4 mps 747 mmHg 67%
12:00 +15°C° 0.4 mm 4 mps 747 mmHg 66%
13:00 +15°C° 0.4 mm 4 mps 747 mmHg 64%
14:00 +15°C° 0.5 mm 4 mps 747 mmHg 66%
15:00 +15°C° 0.5 mm 4 mps 747 mmHg 67%
16:00 +15°C° 0.5 mm 4 mps 747 mmHg 68%
17:00 +14°C° 0.4 mm 4 mps 747 mmHg 73%
18:00 +13°C° 0.4 mm 3 mps 747 mmHg 79%
19:00 +11°C° 0.4 mm 3 mps 748 mmHg 85%
20:00 +10°C° 0 mm 3 mps 748 mmHg 88%
21:00 +9°C° 0 mm 3 mps 748 mmHg 91%
22:00 +8°C° 0 mm 3 mps 749 mmHg 93%
23:00 +7°C° 0 mm 3 mps 749 mmHg 93%

20 May, Thursday

Time Temperature Precipitation Wind Pressure Humidity
00:00 +7°C° 0 mm 3 mps 749 mmHg 94%
01:00 +5°C° 0 mm 3 mps 749 mmHg 94%
02:00 +5°C° 0 mm 3 mps 749 mmHg 94%
03:00 +4°C° 0 mm 3 mps 749 mmHg 93%
04:00 +4°C° 0 mm 3 mps 749 mmHg 93%
05:00 +7°C° 0 mm 3 mps 749 mmHg 89%
06:00 +7°C° 0 mm 4 mps 749 mmHg 84%
07:00 +9°C° 0 mm 5 mps 750 mmHg 80%
08:00 +10°C° 0 mm 5 mps 749 mmHg 74%
09:00 +13°C° 0 mm 6 mps 749 mmHg 68%
10:00 +14°C° 0 mm 6 mps 749 mmHg 61%
11:00 +15°C° 0 mm 6 mps 749 mmHg 58%
12:00 +15°C° 0 mm 6 mps 749 mmHg 55%
13:00 +16°C° 0 mm 6 mps 749 mmHg 52%
14:00 +15°C° 0.1 mm 6 mps 749 mmHg 57%
15:00 +15°C° 0.1 mm 6 mps 749 mmHg 62%
16:00 +14°C° 0.1 mm 6 mps 749 mmHg 67%
17:00 +13°C° 0.1 mm 6 mps 749 mmHg 70%
18:00 +12°C° 0.1 mm 5 mps 750 mmHg 73%
19:00 +10°C° 0.1 mm 5 mps 750 mmHg 76%
20:00 +8°C° 0 mm 5 mps 750 mmHg 77%
21:00 +7°C° 0 mm 4 mps 750 mmHg 77%
22:00 +5°C° 0 mm 4 mps 751 mmHg 78%
23:00 +5°C° 0 mm 4 mps 751 mmHg 81%

21 May, Friday

Time Temperature Precipitation Wind Pressure Humidity
00:00 +5°C° 0 mm 5 mps 751 mmHg 84%
01:00 +3°C° 0 mm 5 mps 751 mmHg 87%
02:00 +3°C° 0 mm 5 mps 751 mmHg 87%
03:00 +2°C° 0 mm 5 mps 751 mmHg 88%
04:00 +2°C° 0 mm 5 mps 751 mmHg 89%
05:00 +3°C° 0 mm 5 mps 751 mmHg 84%
06:00 +5°C° 0 mm 6 mps 751 mmHg 79%
07:00 +7°C° 0 mm 6 mps 751 mmHg 74%
08:00 +8°C° 0 mm 6 mps 751 mmHg 69%
09:00 +8°C° 0 mm 6 mps 751 mmHg 65%
10:00 +9°C° 0 mm 6 mps 751 mmHg 60%
11:00 +10°C° 0 mm 6 mps 750 mmHg 57%
12:00 +11°C° 0 mm 7 mps 750 mmHg 53%
13:00 +12°C° 0 mm 7 mps 750 mmHg 50%
14:00 +12°C° 0 mm 7 mps 750 mmHg 53%
15:00 +13°C° 0 mm 6 mps 750 mmHg 56%
16:00 +13°C° 0 mm 6 mps 750 mmHg 59%
17:00 +12°C° 0 mm 5 mps 749 mmHg 64%
18:00 +11°C° 0 mm 4 mps 749 mmHg 70%
19:00 +10°C° 0 mm 2 mps 749 mmHg 76%
20:00 +9°C° 0 mm 2 mps 749 mmHg 78%
21:00 +9°C° 0 mm 3 mps 749 mmHg 80%
22:00 +8°C° 0 mm 3 mps 749 mmHg 82%
23:00 +8°C° 0.1 mm 3 mps 749 mmHg 83%

22 May, Saturday

Time Temperature Precipitation Wind Pressure Humidity
00:00 +9°C° 0.1 mm 3 mps 748 mmHg 84%
01:00 +9°C° 0.1 mm 3 mps 748 mmHg 85%
02:00 +9°C° 0.2 mm 3 mps 748 mmHg 88%
03:00 +9°C° 0.2 mm 3 mps 748 mmHg 92%
04:00 +9°C° 0.2 mm 2 mps 747 mmHg 96%
05:00 +9°C° 0.1 mm 3 mps 747 mmHg 95%
06:00 +9°C° 0.1 mm 3 mps 747 mmHg 94%
07:00 +10°C° 0.1 mm 3 mps 747 mmHg 94%
08:00 +12°C° 0 mm 4 mps 747 mmHg 84%
09:00 +14°C° 0 mm 5 mps 746 mmHg 75%
10:00 +16°C° 0 mm 6 mps 746 mmHg 65%
11:00 +17°C° 0 mm 6 mps 746 mmHg 63%
12:00 +19°C° 0 mm 6 mps 746 mmHg 60%
13:00 +19°C° 0 mm 6 mps 746 mmHg 57%
14:00 +19°C° 0.3 mm 6 mps 746 mmHg 64%
15:00 +17°C° 0.3 mm 5 mps 746 mmHg 72%
16:00 +16°C° 0.3 mm 5 mps 746 mmHg 79%
17:00 +15°C° 0.5 mm 5 mps 746 mmHg 82%
18:00 +14°C° 0.5 mm 5 mps 746 mmHg 84%
19:00 +13°C° 0.5 mm 5 mps 747 mmHg 87%
20:00 +12°C° 0.1 mm 4 mps 747 mmHg 88%
21:00 +12°C° 0.1 mm 3 mps 747 mmHg 90%
22:00 +12°C° 0.1 mm 2 mps 747 mmHg 91%
23:00 +12°C° 0.1 mm 2 mps 747 mmHg 92%
Show more